Regional Weather Roundup
Issued by NWS

Home | Current Version | Previous Version | Text Only | Print | Product List | Glossary Off
Versions: 1 2 3 4 5 6 7 8 9 10 11 12 13 14 15 16 17 18 19 20 21 22 23 24 25 26 27 28 29 30 31 32 33 34 35 36 37 38 39 40 41 42 43 44 45 46 47 48 49 50

806
ASUS44 KMEG 251310
RWRTN
TENNESSEE HOURLY STATE WEATHER ROUNDUP
NATIONAL WEATHER SERVICE MEMPHIS TN
800 AM CDT WED MAY 25 2016

TNZ002-004-019-021-049-052-054-088>092-251400-
WEST TENNESSEE

CITY           SKY/WX    TMP DP  RH WIND       PRES   REMARKS
MEMPHIS INTL   CLOUDY    71  65  81 S13       30.09F
NWS MEMPHIS      N/A     70 N/A N/A MISG        N/A
JACKSON        SUNNY     71  64  78 S8        30.11F
DYERSBURG      PTSUNNY   70  63  78 SE7       30.09F
UNION CITY     SUNNY     72  68  88 SE8       30.09F
PARIS          MOSUNNY   64  63  94 S5        30.13S
LEXINGTON      SUNNY     66  64  94 E3        30.13S
$$

TNZ008-025-027-028-033-062-065-066-251400-
NORTH MIDDLE TENNESSEE

CITY           SKY/WX    TMP DP  RH WIND       PRES   REMARKS
NASHVILLE      CLOUDY    71  59  65 S8        30.15R
CLARKSVILLE    CLOUDY    69  63  81 SW6       30.13R
SMYRNA         CLOUDY    71  59  66 S5        30.17R
COOKEVILLE     MOSUNNY   68  59  73 VRB3      30.20R
CROSSVILLE     CLOUDY    69  56  62 CALM      30.25R
$$

TNZ061-075-076-078-094-096-097-251400-
SOUTH MIDDLE TENNESSEE

CITY           SKY/WX    TMP DP  RH WIND       PRES   REMARKS
FAYETTEVILLE   MOSUNNY   70  57  64 S6        30.20R
TULLAHOMA      MOSUNNY   64  63  94 CALM      30.22R
WINCHESTER     MOSUNNY   68  59  73 SE3       30.22R
MCMINNVILLE    PTSUNNY   64  63  94 CALM      30.21R
COLUMBIA       PTSUNNY   70  70 100 S5        30.15R
SHELBYVILLE    PTSUNNY   72  61  68 S7        30.20R
$$

TNZ017-018-042-046-047-251400-
NORTHEAST TENNESSEE

CITY           SKY/WX    TMP DP  RH WIND       PRES   REMARKS
TRI CITIES     MOSUNNY   61  52  72 VRB5      30.25F
$$

TNZ012-013-036-069-073-074-251400-
CENTRAL EAST TENNESSEE

CITY           SKY/WX    TMP DP  RH WIND       PRES   REMARKS
KNOXVILLE      PTSUNNY   66  55  67 CALM      30.23
OAK RIDGE      CLOUDY    65  57  75 CALM      30.24R
GATLINBURG     SUNNY     64  52  63 CALM      30.23R
$$

TNZ083-085-099-251400-
SOUTHEAST TENNESSEE

CITY           SKY/WX    TMP DP  RH WIND       PRES   REMARKS
CHATTANOOGA    CLOUDY    69  58  67 CALM      30.22R
$$

SKY/WX REPORTED AS FAIR MEANS FEW OR NO CLOUDS BELOW
12 THOUSAND FEET.





USA.gov is the U.S. government's official web portal to all federal, state and local government web resources and services.